Helicity
128 125 144 116 111 110 94 130 139 164 95 211 215 204 137 236 156 141 130 174 158 188 183 211 166 163 168 174 189 215 133 253 233 174 100 98 103 155 146 276 195 183 142 145
115 104 97 117 87 74 61 127 144 126 188 287 178 117 126 181 260 184 202 193 138 121 150 184 182 144 98 131 169 218 185 287 238 187 205 266 282 186 163 134 142 182 252 211
69 64 52 43 39 55 44 53 142 145 134 156 352 390 384 379 140 139 198 226 216 201 179 158 195 194 158 247 213 166 213 178 227 225 175 140 191 129 127 133 173 155 192 173
11 -3 9 15 37 35 -2 46 122 143 211 279 269 231 274 296 338 284 305 244 412 477 331 210 176 142 123 93 112 199 269 268 189 144 143 161 149 150 213 168 120 172 158 132
1 22 18 6 23 28 2 59 74 86 82 71 123 159 141 177 162 224 301 316 355 152 350 464 513 432 350 377 368 238 109 238 209 169 136 157 167 141 165 205 180 123 88 69
20 25 27 15 10 49 53 72 47 42 30 21 28 90 121 124 123 60 70 107 171 257 168 62 105 174 213 244 305 345 377 238 235 213 139 134 135 94 98 107 129 130 101 89
30 21 22 25 10 37 68 69 68 59 34 7 22 11 -0 8 18 52 86 110 113 76 98 9 21 45 27 34 122 53 179 286 139 180 141 205 148 111 102 93 78 73 115 145
23 18 19 14 11 20 84 91 112 98 49 20 24 25 15 -5 -14 -18 6 22 51 68 100 118 7 3 44 71 69 100 95 144 210 243 245 186 192 169 262 273 204 321 305 268
19 12 11 7 10 17 65 119 137 101 106 54 29 47 22 -1 -14 -28 18 33 39 22 13 47 92 121 201 160 88 35 60 60 130 149 233 262 161 247 230 167 145 318 247 188
20 26 21 24 18 25 86 89 112 62 52 30 33 40 35 32 11 12 5 41 25 23 23 9 18 39 36 126 186 184 143 93 106 129 159 82 214 244 198 140 230 234 170 136
10 23 40 32 23 17 100 55 49 72 58 29 30 20 22 24 29 9 11 24 35 31 41 40 47 37 30 60 89 175 226 306 235 130 85 123 332 280 363 363 322 236 187 153
17 20 44 42 28 45 49 44 65 107 36 78 39 15 9 13 -5 22 28 22 31 45 32 47 48 47 45 32 49 15 100 94 164 210 250 255 126 181 300 293 282 269 215 151
26 18 25 32 38 35 62 67 50 27 43 30 28 81 56 66 46 35 65 23 23 35 35 34 46 39 35 40 54 -26 21 45 121 72 97 178 139 191 178 218 230 187 144 117
14 14 24 38 58 37 24 6 7 5 31 43 70 68 68 59 35 18 14 12 8 27 29 31 35 26 54 61 57 47 32 43 58 39 96 228 213 249 238 224 235 196 153 124
18 6 -0 27 56 16 22 27 31 32 35 58 48 63 63 45 40 35 20 6 -3 16 34 33 54 83 72 45 61 73 55 29 51 37 94 67 176 246 251 240 290 251 253 219
10 7 8 18 44 46 14 28 30 27 31 33 30 53 50 39 18 29 22 22 25 41 72 78 66 107 115 86 79 96 106 68 20 51 101 57 72 26 116 152 219 202 249 198
9 19 20 22 44 35 42 65 42 43 31 13 7 14 39 27 16 18 8 25 35 57 71 71 82 121 132 133 133 172 156 89 45 67 82 78 83 94 107 114 100 108 103 133
16 19 26 25 37 39 23 22 9 22 9 14 8 2 3 15 1 15 9 14 15 41 47 62 75 84 94 108 131 122 136 104 61 73 41 34 59 78 66 56 87 121 121 126
4 15 21 26 17 15 6 1 3 -8 6 27 24 11 7 7 -3 1 16 -4 27 20 34 45 52 84 104 114 117 112 107 90 77 67 36 40 42 58 48 61 80 88 107 116
10 24 22 27 25 9 19 24 10 12 24 30 30 14 9 -6 7 3 18 10 12 18 16 12 29 62 70 91 75 65 64 65 63 57 73 73 63 55 54 43 46 51 63 77
39 32 27 20 7 24 15 15 16 3 25 -7 -11 6 30 8 13 25 31 22 12 13 23 20 25 33 41 42 38 36 34 37 36 37 41 39 39 39 46 53 51 47 49 57
34 19 11 21 7 22 31 27 34 21 22 -13 -26 -5 -0 7 5 21 36 36 26 44 33 32 33 27 18 29 27 23 20 25 23 23 27 34 43 41 42 41 44 46 45 46
34 24 25 16 13 26 38 26 46 35 25 18 -13 6 -8 -7 21 24 44 48 51 42 39 38 38 25 23 25 22 19 14 17 19 22 23 23 26 24 29 35 37 43 40 39
66 50 56 47 50 63 75 61 57 53 45 15 8 22 9 17 28 36 53 63 54 51 40 39 33 29 30 26 20 19 21 21 20 23 26 27 29 27 27 30 36 45 55 61
77 46 106 97 80 84 70 67 60 49 28 19 27 33 23 20 28 24 35 41 46 43 41 35 35 31 30 27 27 21 20 18 13 13 18 28 32 32 33 34 35 35 37 46
61 62 87 75 78 71 61 52 53 47 31 33 33 30 35 27 20 35 38 33 30 31 28 16 19 23 24 25 24 18 14 15 12 10 13 20 29 36 36 35 43 47 44 49
86 83 64 66 65 56 47 37 39 25 35 43 32 37 34 21 30 31 14 21 16 13 11 16 20 19 23 17 13 8 10 9 9 9 8 9 14 11 18 36 48 45 42 43
Wind_Speed
77 77 80 77 78 84 73 64 73 51 38 58 63 79 75 67 81 67 73 76 83 83 79 80 78 75 61 41 40 51 45 58 70 63 54 45 50 55 53 68 68 69 74 80
74 76 75 74 74 75 74 76 73 54 49 79 82 82 83 77 79 76 76 79 75 79 85 89 86 84 68 62 54 51 41 59 75 74 55 52 59 60 63 67 76 78 72 61
71 73 72 72 71 70 67 69 76 61 54 63 76 83 89 92 73 79 84 96 91 94 94 84 90 85 66 61 63 62 56 76 80 86 75 65 63 60 61 71 89 89 88 85
70 69 71 71 70 65 61 59 67 62 72 73 79 76 77 82 82 71 72 73 68 82 101 98 98 93 88 66 63 64 61 89 85 93 92 85 76 72 60 67 77 93 91 85
67 70 70 71 70 60 57 63 65 61 77 68 74 75 78 85 74 72 82 75 76 70 74 75 79 76 74 75 72 80 76 92 84 97 90 90 98 94 84 85 81 85 90 103
68 68 69 69 69 54 51 46 48 53 61 66 65 63 63 69 74 68 68 77 87 90 82 69 65 67 70 69 70 74 75 82 92 111 94 93 109 97 100 105 101 98 112 101
67 66 68 71 66 54 44 42 43 52 63 55 53 58 61 65 65 74 74 75 83 83 75 84 86 83 81 80 81 70 75 78 82 97 93 117 95 82 75 81 82 80 87 83
67 67 66 69 65 58 41 34 34 42 55 49 51 51 55 58 61 64 67 65 63 67 71 82 88 95 99 98 91 87 83 86 82 92 98 90 80 62 63 71 68 62 71 73
66 63 61 64 64 58 43 26 25 31 39 42 42 46 51 58 62 64 55 53 57 53 56 61 76 88 86 86 90 78 85 85 98 91 98 100 78 65 65 68 88 71 76 82
65 59 57 60 60 61 32 27 9 20 37 38 35 36 49 52 53 60 61 52 50 40 48 58 63 74 71 82 83 82 80 79 97 100 108 101 76 81 69 79 74 74 73 75
71 59 49 54 57 54 27 32 14 19 27 24 33 32 44 50 48 62 61 59 34 41 44 47 47 50 48 51 52 66 66 72 84 85 86 94 67 64 78 79 81 83 81 81
78 65 47 45 47 42 40 32 31 27 27 32 40 47 40 27 38 50 41 43 51 38 43 40 41 54 56 53 52 45 51 54 66 60 67 57 44 49 59 65 73 77 82 81
72 65 48 33 41 43 35 32 27 28 36 42 32 33 37 35 30 32 38 38 36 34 36 45 42 43 47 50 42 43 44 48 48 58 55 61 50 59 61 64 67 70 71 74
68 62 52 38 30 33 31 34 32 36 37 41 35 37 42 36 38 35 29 29 50 42 42 42 41 43 39 37 38 39 47 48 52 48 54 55 57 63 64 64 63 65 66 67
66 59 48 43 43 29 29 35 34 36 37 44 49 40 34 43 41 40 44 45 44 37 29 30 37 32 39 34 33 40 47 46 48 49 53 52 56 59 62 60 61 61 62 63
68 51 40 37 39 29 36 34 34 32 37 40 45 35 33 44 38 41 44 42 37 34 30 32 31 37 34 34 34 42 46 47 45 49 56 42 48 43 52 53 55 55 55 54
60 44 41 39 34 33 33 36 38 33 34 36 40 37 36 47 38 38 38 37 33 32 30 31 34 39 33 32 35 51 49 47 44 47 45 46 47 48 50 48 49 47 46 46
45 41 42 42 41 35 35 44 39 27 30 35 37 41 42 44 43 38 33 32 33 36 31 33 35 35 32 32 45 47 47 45 42 46 44 44 46 45 45 45 44 44 45 42
37 35 35 35 38 36 34 35 45 36 35 34 39 47 44 48 43 37 31 32 32 32 34 35 33 35 36 44 47 46 46 45 49 48 45 45 45 45 44 44 42 40 41 41
32 33 34 37 34 20 29 27 27 30 33 37 41 48 45 45 41 35 30 32 31 32 33 32 33 32 35 44 44 44 46 47 47 46 46 46 46 44 45 44 43 43 43 41
34 34 34 32 24 31 33 31 32 26 30 27 21 32 37 13 39 38 35 32 32 31 32 33 33 33 43 44 41 42 44 45 44 45 46 45 45 46 46 46 46 45 42 41
37 35 33 34 38 37 40 39 33 30 27 22 16 17 15 18 36 35 37 34 34 32 33 33 33 36 42 42 43 44 44 45 45 44 45 46 46 45 45 46 46 46 45 43
32 34 35 35 35 45 41 33 32 26 24 22 10 18 19 20 30 26 36 33 33 32 32 32 32 39 42 43 44 44 44 46 46 46 45 46 46 45 45 46 46 47 46 45
40 41 46 46 41 37 31 21 15 13 11 6 10 17 25 30 35 33 32 32 32 31 32 32 36 42 45 46 46 46 47 47 47 46 46 46 47 46 46 45 46 46 46 47
42 40 44 44 38 36 29 23 19 19 16 16 19 21 28 31 30 31 31 31 31 32 31 35 43 45 47 48 49 48 48 48 47 47 48 49 49 48 47 46 47 46 47 47
40 41 40 38 39 40 36 34 32 28 21 23 26 27 30 34 31 34 34 28 29 31 37 43 45 46 47 48 49 48 49 49 48 47 47 48 48 49 49 48 48 48 47 47
38 38 39 40 40 40 41 38 36 26 31 37 33 35 33 28 34 33 32 32 35 42 43 45 46 46 47 47 48 48 48 49 49 49 49 48 48 47 47 47 49 48 47 47
Wind_Direction
330 330 330 328 329 329 328 319 306 322 315 292 291 284 288 294 288 289 285 287 283 282 284 284 278 279 281 293 288 281 266 284 276 280 287 278 271 276 270 278 282 279 282 282
335 333 332 333 331 333 328 316 308 313 304 291 289 289 287 288 288 286 286 284 283 282 279 278 276 276 278 280 280 284 273 278 277 276 281 285 280 272 274 274 277 275 280 288
337 337 336 334 334 333 329 320 312 313 308 299 298 297 292 290 288 288 287 283 283 281 277 275 276 277 281 279 273 277 279 272 270 271 277 285 283 277 271 269 270 274 271 279
339 339 338 337 335 335 330 320 313 314 305 302 303 300 298 295 294 297 295 286 292 286 276 275 273 274 273 271 271 274 277 271 271 273 275 276 279 279 280 271 273 271 277 278
339 339 339 338 336 336 327 318 316 314 308 307 304 301 294 292 294 298 288 292 291 295 287 285 279 280 276 274 280 272 267 272 274 272 273 273 273 274 275 275 277 278 279 277
341 341 341 339 337 339 330 330 326 320 313 309 307 309 308 303 301 296 293 290 291 285 287 289 290 285 280 279 277 275 275 271 271 271 273 275 269 269 272 274 274 277 275 281
343 342 341 341 339 338 329 328 327 320 312 312 312 313 313 311 309 303 300 295 290 289 293 288 282 279 277 275 272 271 274 275 273 273 272 264 271 277 279 276 277 280 280 285
341 341 340 340 340 338 332 329 323 323 314 315 317 315 317 317 316 311 306 305 306 302 291 286 281 277 273 271 269 267 266 269 273 267 267 274 274 282 280 279 277 289 287 290
343 341 341 340 340 340 339 334 333 326 321 322 322 321 322 319 318 318 320 320 315 311 296 289 280 275 278 274 268 267 263 261 261 266 267 268 270 282 287 281 271 288 290 289
345 344 342 340 340 334 348 348 4 340 324 326 326 330 325 326 326 321 319 323 321 324 301 293 289 285 282 273 272 268 266 262 259 262 264 266 280 282 283 269 275 293 293 291
350 352 351 346 340 338 357 350 351 340 335 334 335 341 328 326 330 321 319 319 334 315 305 304 303 299 302 291 292 277 273 270 265 264 264 260 297 278 270 279 286 288 289 290
348 357 3 2 354 346 325 349 345 324 333 335 324 326 333 342 338 330 335 325 313 322 315 315 313 301 300 294 289 306 278 282 272 274 267 285 302 302 298 297 290 291 290 291
351 358 10 24 10 354 350 349 0 350 334 329 342 349 353 357 355 351 334 332 330 326 320 311 313 309 309 296 296 298 305 313 287 275 284 288 293 302 307 303 300 300 299 296
350 357 6 12 18 6 359 335 340 331 342 334 343 346 345 358 353 348 347 294 304 312 311 309 310 311 322 318 313 305 302 302 297 292 297 290 295 302 305 305 306 304 304 303
353 357 5 1 342 9 354 345 344 336 336 330 327 342 351 350 350 337 330 324 312 318 324 324 315 326 325 332 326 313 305 302 298 291 302 301 299 303 307 306 308 312 310 308
352 6 14 11 348 350 339 348 350 351 345 340 331 348 351 340 346 336 333 329 326 323 331 331 336 328 324 327 323 318 309 300 302 297 287 301 307 312 318 317 315 317 316 319
5 23 29 32 36 9 7 357 350 359 0 348 333 336 349 331 340 334 331 335 333 332 341 338 332 324 331 334 322 309 310 303 305 302 297 293 301 303 311 316 325 328 329 326
27 39 45 50 52 52 33 348 349 34 30 10 342 334 337 338 328 326 331 334 335 333 341 338 334 337 338 337 313 310 312 301 308 309 307 293 293 302 308 313 319 327 334 329
45 56 59 63 60 63 70 60 20 29 31 17 359 332 328 323 326 323 334 327 336 338 338 333 334 335 338 319 309 308 311 306 300 302 309 308 303 306 307 310 310 313 316 325
60 61 58 51 58 92 86 94 90 73 55 34 9 333 331 310 316 324 336 327 334 338 339 348 349 351 345 320 312 309 311 309 306 304 307 307 309 301 306 308 309 315 317 318
65 64 64 63 84 74 73 74 70 81 66 76 85 30 282 131 313 319 320 332 332 339 342 342 349 349 332 322 312 306 312 315 311 310 306 305 305 306 309 313 320 319 314 313
66 72 79 75 67 66 60 58 69 76 77 69 98 226 174 151 281 330 324 334 329 333 334 341 345 345 328 312 312 316 316 314 315 318 314 311 308 306 307 312 313 314 311 308
82 80 76 72 68 54 58 61 64 65 68 79 213 235 100 121 30 43 344 344 339 340 340 342 343 331 318 312 311 311 313 318 319 320 317 317 313 312 311 310 312 314 313 306
64 62 57 58 60 61 66 65 72 83 94 156 186 103 75 42 11 14 12 360 357 349 343 341 336 325 316 315 315 316 315 317 315 313 312 312 316 313 311 311 309 307 308 309
55 59 53 56 63 64 65 71 74 76 83 94 99 94 60 49 61 46 26 26 11 4 360 344 319 316 319 319 318 313 312 312 311 310 310 311 314 312 312 311 311 310 308 309
52 50 48 50 49 47 54 58 59 70 84 96 89 79 69 59 61 40 30 55 42 20 345 316 309 308 315 316 312 314 314 314 311 311 310 311 313 313 314 318 319 313 310 310
41 42 43 39 38 38 38 43 48 65 67 53 66 61 66 82 53 53 64 49 10 325 314 313 309 305 307 308 309 314 315 315 316 315 314 312 312 310 314 314 315 314 314 310